Welcome to the New NWS' Forecast!
Most changes are behind the scenes, but click here for differences you might notice.
Latest weather observations around

Vaiden Fld Airport (KA08)

Using English Units (Switch to International System of Units)
Date/ Time (CDT) Wind (mph) Vis. (mi) Weather Sky Cond. Temp (°F) Rel. Humidity Wind Chill (°F) Heat Index (°F) Pressure Precip. (in)
Air Dwpt 6 hour Altimeter (inHg) Sea level (inHg) 1 hr 3 hr 6 hr
Max Min
Jul 18 22:35 W 3 10 Clear CLR 74 74     98%   76 29.94        
Jul 18 22:15 W 3 10 Clear CLR 74 74     98%   76 29.94        
Jul 18 21:55 Calm 10 Clear CLR 74 73     96%   76 29.94        
Jul 18 21:35 Calm 10 Partly Cloudy SCT044 74 73     96%   76 29.94        
Jul 18 21:15 WNW 6 10 Clear CLR 74 73     96%   76 29.93        
Jul 18 20:55 SW 5 10 Clear CLR 74 72     94%   76 29.93        
Jul 18 20:35 Calm 10 Partly Cloudy SCT095 75 73     92%   77 29.93        
Jul 18 20:15 Calm 10 Clear CLR 75 74     96%   77 29.93        
Jul 18 19:55 Calm 10 Clear CLR 75 73     93%   77 29.93        
Jul 18 19:35 WSW 5 10 Partly Cloudy SCT065 SCT085 75 73     94%   77 29.94        
Jul 18 19:15 SSE 3 10 Light Drizzle SCT014 SCT044 BKN055 74 74     98%   76 29.93        
Jul 18 18:55 ESE 11 10 Rain SCT014 BKN034 OVC050 76 72     88%   77 29.91        
Jul 18 18:35 ESE 8 10 Mostly Cloudy SCT028 SCT044 BKN065 82 72     73%   87 29.92        
Jul 18 18:15 SSE 5 10 Clear CLR 87 77     72%   99 29.89        
Jul 18 17:55 E 3 10 Clear CLR 88 76     69%   99 29.89        
Jul 18 17:35 SW 6 10 Clear CLR 88 76     67%   98 29.89        
Jul 18 17:15 SSW 7 10 Clear CLR 90 76     62%   101 29.89        
Jul 18 16:55 S 3 10 Partly Cloudy SCT070 SCT080 90 76     63%   101 29.88        
Jul 18 16:35 SSE 3 10 Partly Cloudy SCT038 88 75     66%   98 29.89        
Jul 18 16:15 S 6 10 Mostly Cloudy SCT038 SCT048 BKN050 85 75     73%   94 29.88        
Jul 18 15:55 N 3 10 Cloudy SCT038 BKN050 OVC090 90 76     63%   101 29.89        
Jul 18 15:35 N 3 10 Mostly Cloudy SCT038 BKN090 91 76     61%   102 29.89        
Jul 18 15:15 W 5 10 Partly Cloudy SCT034 SCT060 91 75     60%   102 29.91        
Jul 18 14:55 WNW 5 10 Mostly Cloudy BKN034 BKN049 BKN060 88 76     67%   99 29.92        
Jul 18 14:35 WNW 6 10 Mostly Cloudy SCT036 SCT049 BKN070 89 76     65%   100 29.93        
Jul 18 14:15 W 7 10 Mostly Cloudy SCT033 SCT050 BKN070 90 76     63%   101 29.93        
Jul 18 13:55 Calm 10 Mostly Cloudy SCT033 SCT048 BKN070 89 75     64%   100 29.94        
Jul 18 13:35 WNW 3 10 Partly Cloudy SCT033 88 75     66%   98 29.95        
Jul 18 13:15 N 5 10 Partly Cloudy SCT029 SCT037 89 75     63%   100 29.96        
Jul 18 12:55 Calm 10 Partly Cloudy SCT029 88 74     64%   97 29.96        
Jul 18 12:35 Calm 10 Partly Cloudy SCT029 88 75     66%   98 29.97        
Jul 18 12:15 WNW 5 10 Clear CLR 87 74     64%   96 29.97        
Jul 18 11:55 NNW 5 10 Clear CLR 87 76     70%   97 29.98        
Jul 18 11:35 Calm 10 Clear CLR 86 75     69%   94 29.98        
Jul 18 11:15 Calm 10 Clear CLR 85 75     72%   94 29.99        
Jul 18 10:55 Calm 10 Partly Cloudy SCT019 84 75     73%   92 29.99        
Jul 18 10:35 Calm 10 Partly Cloudy SCT017 83 75     77%   90 30        
Jul 18 10:15 W 5 10 Partly Cloudy SCT015 83 76     80%   91 30        
Jul 18 09:55 WSW 3 10 Partly Cloudy SCT015 81 75     81%   88 30        
Jul 18 09:35 Calm 10 Clear CLR 80 75     84%   85 30        
Jul 18 09:15 Calm 10 Clear CLR 80 75     84%   85 30        
Jul 18 08:55 W 3 10 Clear CLR 79 74     86%   83 30        
Jul 18 08:35 W 3 10 Clear CLR 78 74     89%   80 30.01        
Jul 18 08:15 WSW 3 10 Clear CLR 76 75     95%   78 30.01        
Jul 18 07:55 W 3 10 Clear CLR 76 74     94%   78 30.01        
Jul 18 07:35 Calm 10 Clear   75 75     99%   77 30.01        
Jul 18 07:15 NW 5 10 Clear   74 74     100%   76 30.01        
Jul 18 06:55 NNW 3 10 Clear   73 73     100%   75 30.01        
Jul 18 06:35 W 5 10 Clear CLR 73 73     100%   75 30        
Jul 18 06:15 NW 3 10 Partly Cloudy SCT070 72 72     100%   74 29.99        
Jul 18 05:55 NW 6 10 Mostly Cloudy SCT039 BKN070 72 72     100%   74 30        
Jul 18 05:35 W 6 10 Mostly Cloudy BKN035 BKN070 72 72     100%   74 29.99        
Jul 18 05:15 W 5 10 Mostly Cloudy BKN035 72 72     100%   74 29.99        
Jul 18 04:55 Calm 10 Clear CLR 72 72     100%   74 29.98        
Jul 18 04:35 Calm 10 Clear CLR 72 72     100%   74 29.97        
Jul 18 04:15 W 5 10 Clear CLR 72 72     100%   74 29.97        
Jul 18 03:55 Calm 10 Clear CLR 73 73     100%   74 29.97        
Jul 18 03:35 Calm 10 Clear CLR 73 73     100%   75 29.97        
Jul 18 03:15 WSW 3 10 Clear CLR 73 73     100%   75 29.97        
Jul 18 02:55 WSW 3 10 Clear CLR 73 73     100%   75 29.97        
Jul 18 02:35 SSE 6 10 Partly Cloudy SCT085 73 73     100%   75 29.96        
Jul 18 02:15 Calm 10 Partly Cloudy SCT085 74 74     100%   75 29.97        
Jul 18 01:55 Calm 10 Clear CLR 74 74     100%   76 29.96        
Jul 18 01:35 Calm 10 Clear CLR 74 74     100%   76 29.97        
Jul 18 01:15 Calm 10 Clear CLR 74 74     100%   76 29.97        
Jul 18 00:55 Calm 10 Clear CLR 75 75     100%   77 29.97        
Jul 18 00:35 NW 3 10 Clear CLR 75 75     100%   77 29.97        
Jul 18 00:15 Calm 10 Clear CLR 75 75     100%   77 29.98        
Jul 17 23:55 Calm 10 Clear CLR 75 75     100%   77 29.98        
Jul 17 23:35 W 3 10 Clear CLR 76 75     99%   77 29.99        
Jul 17 23:15 Calm 10 Clear CLR 76 76     98%   78 29.98        
Jul 17 22:55 WSW 3 10 Clear CLR 76 75     96%   78 29.99        
Jul 17 22:35 Calm 10 Clear CLR 77 75     94%   79 29.99        
Jul 17 22:15 NW 3 10 Clear CLR 78 75     91%   79 30        
Jul 17 21:55 NW 3 10 Clear CLR 78 76     92%   80 30        
Jul 17 21:35 Calm 10 Clear CLR 78 77     96%   81 29.99        
Jul 17 21:15 Calm 10 Clear CLR 79 77     94%   83 29.98        
Jul 17 20:55 W 6 10 Clear CLR 80 76     89%   85 29.98        
Jul 17 20:35 W 6 10 Partly Cloudy SCT042 81 76     87%   87 29.97        
Jul 17 20:15 WSW 6 10 Partly Cloudy SCT042 81 76     84%   89 29.97        
Jul 17 19:55 SSW 8 10 Clear CLR 82 79     91%   93 29.97        
Jul 17 19:35 Calm 10 Clear CLR 84 78     82%   95 29.97        
Jul 17 19:15 Calm 10 Clear CLR 86 76     71%   96 29.97        
Jul 17 18:55 W 3 10 Clear CLR 88 75     67%   98 29.97        
Jul 17 18:35 Calm 10 Clear CLR 89 73     60%   98 29.96        
Jul 17 18:15 NW 3 10 Clear CLR 88 74     63%   96 29.96        
Jul 17 17:55 W 3 10 Clear CLR 90 73     59%   98 29.95        
Jul 17 17:35 Calm 10 Clear CLR 90 73     56%   99 29.96        
Jul 17 17:15 Calm 10 Clear CLR 89 72     59%   96 29.96        
Jul 17 16:55 W 3 10 Partly Cloudy SCT040 91 73     56%   99 29.95        
Jul 17 16:35 Calm 10 Mostly Cloudy BKN040 BKN050 91 74     58%   101 29.94        
Jul 17 16:15 Calm 10 Partly Cloudy SCT039 90 75     62%   101 29.95        
Jul 17 15:55 Calm 10 Partly Cloudy SCT034 89 74     62%   98 29.95        
Jul 17 15:35 Calm 10 Partly Cloudy SCT034 90 75     62%   101 29.96        
Jul 17 15:15 Calm 10 Partly Cloudy SCT032 89 76     65%   101 29.98        
Jul 17 14:55 NNW 3 10 Clear CLR 90 75     62%   100 29.99        
Jul 17 14:35 W 5 10 Partly Cloudy SCT031 89 75     63%   100 29.99        
Jul 17 14:15 WSW 3 10 Clear CLR 89 75     63%   99 30        
Jul 17 13:55 NNW 3 10 Clear CLR 88 75     66%   97 30        
Jul 17 13:35 Calm 10 Clear CLR 88 75     67%   98 30        
Jul 17 13:15 NNW 3 10 Partly Cloudy SCT026 SCT033 86 76     72%   95 30.02        
Jul 17 12:55 Calm 10 Mostly Cloudy BKN024 85 75     72%   95 30.03        
Jul 17 12:35 Calm 10 Mostly Cloudy BKN024 84 75     73%   92 30.03        
Jul 17 12:15 Calm 10 Partly Cloudy SCT019 85 76     72%   95 30.03        
Jul 17 11:55 Calm 10 Mostly Cloudy BKN019 83 75     76%   90 30.04        
Jul 17 11:35 Calm 10 Cloudy OVC017 82 74     78%   88 30.04        
Jul 17 11:15 Calm 10 Cloudy OVC015 81 75     83%   86 30.04        
Jul 17 10:55 Calm 10 Cloudy OVC015 80 74     82%   85 30.04        
Jul 17 10:35 Calm 10 Cloudy OVC013 80 75     85%   84 30.04        
Jul 17 10:15 Calm 10 Mostly Cloudy BKN013 80 74     84%   84 30.04        
Jul 17 09:55 NW 3 10 Mostly Cloudy BKN011 79 75     88%   82 30.04        
Jul 17 09:35 Calm 10 Mostly Cloudy BKN011 78 74     88%   80 30.04        
Jul 17 09:15 WNW 5 10 Mostly Cloudy BKN011 79 75     88%   82 30.05        
Jul 17 08:55 W 6 10 Mostly Cloudy BKN009 78 75     90%   81 30.05        
Jul 17 08:35 Calm 10 Cloudy OVC007 76 74     94%   78 30.05        
Jul 17 08:15 Calm 10 Cloudy OVC005 75 74     99%   76 30.05        
Jul 17 07:55 NW 5 10 Cloudy OVC003 74 74     100%   75 30.05        
Jul 17 07:35 Calm 4 Fog/Mist OVC003 73 73     100%   75 30.05        
Jul 17 07:15 Calm 7 Cloudy OVC003 73 73     100%   74 30.05        
Jul 17 06:55 W 3 7 Cloudy OVC003 73 73     100%   74 30.04        
Jul 17 06:35 W 6 7 Cloudy OVC003 72 72     100%   74 30.04        
Jul 17 06:15 W 7 7 Cloudy OVC003 72 72     100%   74 30.04        
Jul 17 05:55 WSW 3 7 Cloudy OVC003 72 72     100%   74 30.03        
Jul 17 05:35 WSW 3 7 Cloudy OVC003 72 72     100%   74 30.03        
Jul 17 05:15 Calm 7 Cloudy OVC003 72 72     100%   74 30.03        
Jul 17 04:55 Calm 7 Cloudy OVC003 72 72     100%   74 30.03        
Jul 17 04:35 SSW 6 5 Clear   72 72     100%   74 30.03        
Jul 17 04:15 SW 5 5 Clear   72 72     100%   74 30.02        
Jul 17 03:55 Calm 7 Clear   72 72     100%   74 30.02        
Jul 17 03:35 Calm 7 Cloudy OVC003 72 72     100%   74 30.02        
Jul 17 03:15 Calm 7 Mostly Cloudy BKN003 72 72     100%   74 30.01        
Jul 17 02:55 SW 5 7 Mostly Cloudy BKN003 72 72     100%   74 30.01        
Jul 17 02:35 SW 3 10 Cloudy OVC005 72 72     100%   74 30.02        
Jul 17 02:15 SSW 10 10 Cloudy OVC005 72 72     100%   74 30.01        
Jul 17 01:55 SSW 11 10 Mostly Cloudy BKN005 72 72     100%   74 30.01        
Jul 17 01:35 S 5 7 Partly Cloudy SCT007 72 72     100%   74 30.01        
Jul 17 01:15 S 3 7 Clear CLR 72 72     100%   74 30        
Jul 17 00:55 SSE 5 10 Clear CLR 72 72     100%   74 30.01        
Jul 17 00:35 Calm 10 Clear CLR 73 73     100%   74 30        
Jul 17 00:15 Calm 10 Clear CLR 73 73     100%   75 30.02        
Jul 16 23:55 Calm 10 Clear CLR 73 73     100%   75 30.02        
Jul 16 23:35 Calm 10 Clear CLR 73 73     100%   75 30.02        
Jul 16 23:15 Calm 10 Clear CLR 73 73     100%   75 30.02        
Jul 16 22:55 Calm 10 Clear CLR 73 73     100%   75 30.02        
Jul 16 22:35 Calm 10 Clear CLR 74 74     100%   75 30.03        
Jul 16 22:15 Calm 10 Clear CLR 74 74     100%   76 30.04        
Jul 16 21:55 Calm 10 Clear CLR 74 74     99%   76 30.04        
Jul 16 21:35 WNW 3 10 Clear CLR 74 74     98%   76 30.05        
Jul 16 21:15 Calm 10 Clear CLR 74 74     98%   76 30.04        
Jul 16 20:55 SW 3 10 Mostly Cloudy SCT012 SCT060 BKN120 75 73     95%   77 30.04        
Jul 16 20:35 Calm 10 Mostly Cloudy BKN110 76 73     92%   77 30.02        
Jul 16 20:15 WSW 7 1.75 Light Rain SCT012 SCT120 76 73     91%   78 30.02        
Jul 16 19:55   10 Partly Cloudy SCT085 78 72     82%   79 29.99        
Jul 16 19:35   10 Light Drizzle SCT060 SCT080 79 72     81%   82 29.98        
Jul 16 19:15 W 7 10 Partly Cloudy SCT024 SCT031 80 75     84%   85 29.98        
Jul 16 18:55 W 6 10 Mostly Cloudy SCT031 BKN036 BKN044 84 79     85%   95 29.97        
Jul 16 18:35 SW 3 10 Mostly Cloudy SCT036 BKN044 84 79     85%   97 29.97        
Jul 16 18:15 SSW 5 10 Clear CLR 85 79     82%   97 29.97        
Jul 16 17:55 S 3 10 Clear CLR 85 79     81%   98 29.97        
Jul 16 17:35 SSW 5 10 Clear CLR 85 79     81%   98 29.98        
Jul 16 17:15 S 3 10 Partly Cloudy SCT031 SCT037 87 77     74%   99 29.97        
Jul 16 16:55 S 7 10 Partly Cloudy SCT033 87 77     73%   98 29.98        
Jul 16 16:35 S 7 10 Partly Cloudy SCT026 87 77     71%   99 29.98        
Jul 16 16:15 S 3 10 Partly Cloudy SCT026 SCT031 88 77     70%   100 29.97        
Jul 16 15:55 S 3 10 Partly Cloudy SCT024 SCT032 87 77     71%   99 29.97        
Jul 16 15:35 Calm 10 Mostly Cloudy SCT024 BKN032 BKN040 86 77     75%   97 29.98        
Jul 16 15:15 Calm 10 Mostly Cloudy SCT024 SCT030 BKN038 85 77     75%   96 29.99        
Jul 16 14:55 ESE 5 10 Mostly Cloudy SCT022 SCT036 BKN045 88 78     71%   101 29.98        
Jul 16 14:35 E 3 10 Mostly Cloudy BKN022 BKN047 87 77     74%   98 29.99        
Jul 16 14:15 SSE 5 10 Partly Cloudy SCT020 85 78     77%   97 30        
Jul 16 13:55 SSE 6 10 Clear CLR 84 77     80%   95 30.02        
Notice The following observation data may not be complete
Jul 16 13:35   10 Partly Cloudy SCT046 SCT060          %              
Jul 16 13:15 Calm 10 Partly Cloudy SCT046 SCT060 83 77     83%   91 30.05        
Jul 16 12:55 Calm 10 Partly Cloudy SCT017 82 76     82%   89 30.06       0
Jul 16 12:35 SE 3 10 Partly Cloudy SCT017 82 77     85%   89 30.06        
Jul 16 12:15 Calm 10 Mostly Cloudy BKN017 81 76     85%   87 30.06        
Jul 16 11:55 Calm 10 Cloudy OVC015 81 76     83%   87 30.07        
Jul 16 11:35 Calm 10 Cloudy OVC015 80 75     83%   85 30.06        
Jul 16 11:15 Calm 10 Mostly Cloudy BKN015 80 74     83%   85 30.07        
Jul 16 10:55 Calm 10 Partly Cloudy SCT011 80 76     88%   85 30.07        
Jul 16 10:35 SE 3 10 Partly Cloudy SCT009 79 76     91%   82 30.07        
Jul 16 10:15 Calm 10 Mostly Cloudy SCT009 BKN012 77 75     93%   79 30.07        
Jul 16 09:55 W 3 10 Mostly Cloudy BKN009 BKN012 77 76     97%   79 30.07     0  
Jul 16 09:35 WNW 5 10 Light Rain BKN009 76 76     99%   78 30.08        
Jul 16 09:15 W 5 10 Light Drizzle BKN007 BKN020 BKN032 76 76     99%   78 30.07        
Jul 16 08:55 Calm 7 Rain BKN005 BKN011 OVC032 76 76     100%   78 30.07   0    
Jul 16 08:35 Calm 2 Rain BKN003 OVC050 75 75     100%   77 30.07   0    
Jul 16 08:15 WSW 5 4 Heavy Rain SCT060 BKN085 BKN100 75 75     100%   77 30.07   0    
Jul 16 07:55 Calm 4 Fog/Mist SCT003 SCT050 BKN075 74 74     100%   76 30.06        
Jul 16 07:35 Calm 4 Fog/Mist BKN003 BKN013 OVC075 74 74     100%   76 30.06        
Jul 16 07:15 Calm 4 Fog/Mist OVC003 74 74     100%   76 30.07        
Jul 16 06:55 Calm 4 Fog/Mist OVC003 74 74     100%   76 30.05        
Jul 16 06:35 SE 3 3 Fog/Mist OVC003 73 73     100%   75 30.04        
Notice The following observation data may not be complete
Jul 16 06:15   2 Fog/Mist BKN001          %              
Jul 16 05:55 Calm 3 Fog/Mist SCT003 74 74     100%   75 30.02        
Jul 16 05:35   4 Fog/Mist SCT003 SCT070 74 74     100%   76 30.02        
Jul 16 05:15 Calm 5 Fog/Mist SCT049 SCT070 74 74     100%   76 30.02        
Jul 16 04:55 Calm 5 Fog/Mist SCT005 74 74     100%   76 30.02        
Jul 16 04:35 Calm 5 Fog/Mist OVC005 74 74     100%   76 30.03        
Jul 16 04:15 Calm 7 Cloudy OVC005 74 74     100%   76 30.03        
Jul 16 03:55 Calm 7 Cloudy OVC005 74 74     100%   76 30.03        
Jul 16 03:35 Calm 7 Cloudy OVC005 74 74     100%   76 30.03        
Jul 16 03:15 Calm 10 Cloudy OVC005 74 74     100%   76 30.03        
Jul 16 02:55 WSW 5 10 Cloudy OVC005 74 74     100%   76 30.03        
Jul 16 02:35 WSW 5 10 Cloudy OVC005 74 74     100%   76 30.02        
Jul 16 02:15 WSW 3 10 Cloudy OVC005 74 74     100%   76 30.02        
Jul 16 01:55 SW 6 10 Cloudy OVC007 74 74     100%   76 30.01        
Jul 16 01:35 S 3 10 Mostly Cloudy BKN007 74 74     100%   76 30.01        
Jul 16 01:15 Calm 7 Partly Cloudy SCT007 74 74     100%   76 30.02        
Jul 16 00:55 WSW 3 7 Mostly Cloudy BKN007 74 74     100%   76 30.02       0
Jul 16 00:35 Calm 7 Mostly Cloudy BKN005 74 74     100%   76 30.01        
Jul 16 00:15 Calm 7 Cloudy OVC005 74 74     100%   76 30.01        
Jul 15 23:35 Calm 10 Cloudy OVC005 75 75     100%   77 30.01        
Jul 15 23:15 W 3 7 Mostly Cloudy BKN005 75 75     100%   77 30.01        
Jul 15 22:55 Calm 7 Cloudy OVC005 75 75     100%   77 30.02        
Jul 15 22:35 Calm 7 Cloudy OVC005 75 75     100%   77 30.02        
Notice The following observation data may not be complete
May 15 12:15   10 Partly Cloudy SCT075          %              
May 15 07:35 ESE 5 10 Clear CLR 72 66     83%   72 29.96        
May 15 04:35 E 3 10 Clear   68 66     93%     29.94        
May 15 00:35   10 Clear CLR 72 66     82%   73 29.92        
May 14 23:55 SSE 3 10 Clear CLR 74 66     76%   75 29.93        
May 13 20:35 Calm 10 Clear CLR 78 66     68%   79 30.01        
May 13 15:35 NNW 3 10 Partly Cloudy SCT070 92 61     36%   92 30.03        
May 13 15:15 W 7 10 Clear CLR 91 60     36%   91 30.04        
May 13 14:35 N 6 10 Clear CLR 91 60     35%   91 30.06        
May 13 08:15 NNW 6 10 Clear CLR 77 65     67%   78 30.12        
May 13 06:15 Calm 10 Clear CLR 61 61     99%     30.1        
May 13 04:55 Calm 10 Clear CLR 62 62     100%     30.06        
May 12 21:35 Calm 10 Clear CLR 72 59     65%   71 30.08        
May 12 17:15 SE 3 10 Clear CLR 89 54     30%   87 30.06        
May 12 15:55 SSE 9 10 Clear   90 53     29%   87 30.08        
May 12 05:35 Calm 10 Clear CLR 58 58     99%     30.12        
May 12 01:55 Calm 10 Clear CLR 62 61     97%     30.07        
Notice The following observation data may not be complete
May 12 00:35   10 Clear CLR          %              
May 11 23:55 SSW 8 10 Clear CLR 66 61     84%     30.09        
May 11 22:15 Calm 10 Clear CLR 69 62     78%     30.08        
Notice The following observation data may not be complete
May 11 11:15   10 Clear CLR          %              
Jun 11 22:55   10 Clear CLR 73 73     100%   75 30.11        
Notice The following observation data may not be complete
Jun 11 18:15   7 Light Rain SCT046 SCT065 OVC110          %         0    
Notice The following observation data may not be complete
Jun 11 17:35   10 Light Rain SCT027 SCT032 OVC048   72      %     30.07        
Jun 11 16:55 ESE 7 10 Mostly Cloudy BKN048 BKN055 89 71     55%   94 30.04        
Jun 11 15:15 E 7 10 Partly Cloudy SCT050 88 69     52%   93 30.07        
Notice The following observation data may not be complete
Jun 11 14:35   10 Mostly Cloudy BKN050          %              
Jun 11 10:15 SSE 10 10 Clear CLR 82 67     60%   85 30.13        
Jun 10 10:15 SSE 3 10 Clear CLR 80 67     64%   83 30.06        
Jun 10 08:55   0.25 Cloudy OVC080 76 68     76%   77 30.06        
Jun 10 08:35 Calm 0.25 Cloudy OVC080 74 68     81%   75 30.05        
Jun 10 03:55 Calm 10 Partly Cloudy SCT075 64 64     100%     29.98        
Jun 10 02:35 Calm 10 Cloudy SCT065 OVC075 64 64     100%     29.98        
Jun 10 01:55 S 7 10 Cloudy OVC075 65 64     97%     29.98        
Notice The following observation data may not be complete
Jun 09 23:35   10 Clear CLR          %              
Notice The following observation data may not be complete
Jun 09 20:35   10 Clear CLR          %              
Jun 09 16:15 Calm 10 Clear CLR 82 57     43%   82 29.92        
Jun 09 11:35   10 Clear CLR 79 60     51%   79 29.98        
Jun 09 03:35 Calm 10 Clear CLR 60 59     97%     29.89        
Jun 09 02:55 WNW 3 10 Clear   60 60     99%     29.9        
Jun 09 02:35 Calm 10 Clear CLR 61 60     97%     29.9        
Jun 09 00:15 NNW 6 10 Clear CLR 65 60     83%     29.91        
Jun 08 23:55 NNW 3 10 Clear CLR 65 60     85%     29.91        
Jun 08 16:50 NW 6 10 Clear CLR 80 57     45%   80 29.86        
Jun 08 13:30 WNW 11 10 Partly Cloudy SCT050 79 59     50%   79 29.9        
Jun 08 07:55 N 3 10 Clear   67 58     71%     29.92        
Jun 08 03:15 N 6 10 Clear CLR 64 55     73%     29.84        
Jun 07 17:50   10 Clear CLR 82 59     47%   82 29.79        
Jun 07 08:15 N 7 10 Clear CLR 71 64     78%   72 29.79        
Jun 06 14:55 NE 3 10 Rain SCT005 BKN047 OVC070 70 70     99%   72 29.72   1    
Jun 06 09:15   10 Cloudy OVC005 75 73     94%   76 29.77        
Jun 05 19:35 SSE 5 10 Light Rain SCT050 SCT065 BKN095 70 70     99%     29.77   0